User: anonymous   Login
Location: Errabaliem
(16.8108°N, 80.4255°E)
Time: 20:59:08
(UTC+00:00)
Language:

GPS 2-15 Rocket1 - Orbit

View from above orbital plane
View from above orbital plane
View from above satellite
View from above satellite

Ground track
Ground track

The orbit data is extracted from the following two-line orbital elements,

1 22109U 92058B   24280.91077756  .00006955  00000-0  89280-3 0  9991
2 22109  19.7804 128.3409 0032863 201.7265 158.1753 14.77481742703800
Epoch (UTC): 06 October 2024 21:51:31
Eccentricity: 0.0032863
inclination: 19.7804°
perigee height: 614 km
apogee height: 660 km
right ascension of ascending node: 128.3409°
argument of perigee: 201.7265°
revolutions per day: 14.77481742
mean anomaly at epoch: 158.1753°
orbit number at epoch: 70380

The dashed part of the orbit path shows where the satellite is in the earth's shadow,  

DLR